DECAYED

STARLINK-30484, 57969 (Decayed)

Orbit data source: Space-Track

STARLINK-30484, 57969 was a payload satellite owned by SpaceX/Seattle (US) in LEO that was launched on Sat, 30 Sep 2023 UTC via an FALCON 9 launch vehicle from the Air Force Eastern Test Range (AFETR). Payload-class satellites include a variety of spacecraft equipped with specific instruments for various scientific and technological missions. These include communications satellites like Starlink; space stations such as the ISS; scientific satellites like the Hubble; Earth observation satellites from companies like Planet Labs, Umbra, and HawkEye 360; GPS; miniature CubeSats for education and research; and military/defense satellites.

Not visible in the next 10 days
Identifier
57969, 2023-151F
Orbit
Decayed
Country
Flag of USUS
Related business
Manufacturer
SpaceX/Seattle
Mission
Decayed Commercial Communications
Bus & Motor
STARLINK V2M, Unknown motor
Mass
730 kg wet, ~700 kg dry
Launch date (UTC)
2023-09-30 (3 years ago)
Launch vehicle
FALCON 9
Launch site
Air Force Eastern Test Range (AFETR)
Object type
Payload
Rocket body
Debris
Shape & HBR
Box + 2 Pan, 17.7 m
Radar Cross Section
33.884 m², Large (>1 m²)

Expand to show TLE details & history
Last TLE update: 10 months ago

TLE from 10 months ago
0 STARLINK-30484
1 57969U 23151F   25251.62901999  .06827189  91977-5  81970-3 0  9995
2 57969  42.9870 227.4226 0002903 248.0330 112.0253 16.35444501  7269
Epoch: 2025-09-08T15:05Z
TLE epoch observation values (Epoch: 2025-09-08T15:05:47.327Z)
Latitude
0.00002°
Longitude
13.04402°
Altitude
178.426 km
Speed
7.801 km/s
True Right ascension
15h 09m 41s
True Declination
0° 00' 00"
Sunlit
Object was in daylight at epoch
Visualization orbit readout
Latitude
Unknown
Longitude
Unknown
Altitude
Unknown
Speed
Unknown
Apparent Right ascension
Unknown
Apparent Declination
Unknown
Sunlit
N/A
Visualization observer readout
Local Sidereal Time
15:08:18
Azimuth
Unknown
Elevation
Unknown
Doppler factor
Unknown
Orbital elements
Apogee altitude
181.89 km
Perigee altitude
178.083 km
Semi-major axis
6,558.124 km
Eccentricity
0.00029
Inclination
42.987°
RAAN
227.4226°
Arg. of periapsis
248.033°
True anomaly
112.05613°
Mean anomaly
112.0253°
Eccentric anomaly
112.04072°
Mean motion
4.08671 °/min
Orbital period
88.09 mins
BSTAR
0.0008197
Loading maneuver chart data...
Computing Atmospheric mass density...
Loading historical data...
Loading historical data...
Loading historical data...
Loading historical data...
Loading historical data...
Loading historical data...
Loading historical data...

Documentation

Showing up to 5 results
|